[[{"header":{"parameterUnit":"m.s-1","parameterCategory":2,"la1":30.2991,"la2":30.254,"lo1":-89.0895,"lo2":-89.0444,"dy":0.0017,"dx":0.0017,"nx":28,"ny":28,"refTime":"2025-07-17T09:00:00:Z","depth":"0","parameterNumber":2,"parameterNumberName":"U-component_of_CURRENTS"},"data":[0,0,0,0,0,0,0,0,0,0,0,0,0,0,0,0,0,0,0,0,0,0,0,0,0,0,0,0,0,0,0,0,0,0,0,0,0,0,0,0,0,0,0,0,0,0,0,0,0,0,0,0,0,0,0,0,0,0,-0.2778,-0.2778,0,-0.2775,-0.2775,-0.2776,-0.2729,-0.2728,-0.2727,-0.2725,-0.2648,-0.2647,-0.2646,0,0,0,0,0,0,0,0,0,0,0,0,0,-0.2697,-0.2699,-0.2778,-0.2778,-0.2778,-0.2775,-0.2775,-0.2776,-0.2729,-0.2728,-0.2726,-0.2725,-0.2648,-0.2647,-0.2646,0,0,0,0,0,0,0,0,0,0,0,0,0,-0.2719,-0.27,-0.2778,-0.2753,-0.2751,-0.2775,-0.2775,-0.2776,-0.273,-0.2728,-0.2726,-0.2724,-0.2648,-0.2647,-0.2646,-0.2679,0,0,-0.2642,-0.2642,0,0,0,0,0,0,0,0,-0.2718,-0.2722,-0.2757,-0.2755,-0.2752,-0.2749,-0.2718,-0.2739,-0.273,-0.274,-0.2725,-0.2723,-0.2675,-0.2672,-0.2679,-0.2675,-0.2672,-0.2642,-0.2641,-0.2641,-0.264,0,0,0,0,0,0,0,-0.2716,-0.2722,-0.2779,-0.2757,-0.2754,-0.2726,-0.2728,-0.2722,-0.2719,-0.2739,-0.2735,-0.2732,-0.2673,-0.268,-0.2677,-0.2671,-0.2642,-0.2641,-0.264,-0.264,-0.2618,-0.2618,0,0,0,0,0,0,-0.2719,-0.2721,-0.2779,-0.2778,-0.2728,-0.2729,-0.2731,-0.2753,-0.272,-0.2713,-0.2734,-0.273,-0.2683,-0.2678,-0.2674,-0.266,-0.2641,-0.264,-0.2639,-0.2618,-0.2618,-0.2618,0,0,0,0,0,0,-0.2717,-0.2725,-0.2779,-0.2746,-0.2751,-0.2733,-0.2758,-0.2754,-0.2757,-0.2717,-0.2709,-0.274,-0.2682,-0.2675,-0.2651,-0.2658,-0.2639,-0.2638,-0.2618,-0.2618,-0.2618,-0.2665,0,0,0,0,0,0,-0.2716,-0.2725,-0.2743,-0.2748,-0.2753,-0.2796,-0.276,-0.2756,-0.2758,-0.2753,-0.272,-0.2711,-0.268,-0.2653,-0.265,-0.2656,-0.2637,-0.2617,-0.2618,-0.2618,-0.2663,-0.2667,-0.267,0,0,0,0,0,-0.2713,-0.2736,-0.2745,-0.2751,-0.2779,-0.2797,-0.2798,-0.2778,-0.2761,-0.2772,-0.2732,-0.2712,-0.2652,-0.2653,-0.2649,-0.2655,-0.2617,-0.2618,-0.2618,-0.2662,-0.2666,-0.267,0,0,0,0,0,0,-0.271,-0.2734,-0.2743,-0.2773,-0.2789,-0.2789,-0.2787,-0.2788,-0.2772,-0.2758,-0.2718,-0.2707,-0.2688,-0.2668,-0.2669,-0.2648,-0.2631,-0.263,-0.2665,-0.2669,-0.2672,-0.2709,-0.2636,0,0,0,0,0,-0.2723,-0.2744,-0.2767,-0.2792,-0.2796,-0.28,-0.2804,-0.2803,-0.2788,-0.278,-0.2754,-0.2719,-0.2692,-0.2676,-0.2653,-0.265,-0.2642,-0.2649,-0.2653,-0.2656,-0.2682,-0.2652,-0.2655,-0.2619,-0.2619,-0.2619,0,0,-0.2724,-0.2743,-0.2753,-0.2792,-0.2794,-0.2821,-0.2797,-0.2809,-0.2827,-0.2774,-0.2771,-0.2735,-0.2693,-0.2677,-0.2668,-0.2659,-0.2664,-0.2656,-0.2659,-0.2685,-0.2653,-0.2656,-0.266,-0.2619,-0.2619,-0.2619,0,0,-0.274,-0.2759,-0.2783,-0.2805,-0.2825,-0.2832,-0.2842,-0.2851,-0.2844,-0.2847,-0.2802,-0.2773,-0.2741,-0.2712,-0.2691,-0.2706,-0.2683,-0.2692,-0.2739,-0.2708,-0.2711,-0.2714,-0.2722,-0.2725,-0.2692,-0.2692,-0.2692,0,-0.274,-0.2784,-0.2791,-0.2826,-0.284,-0.2842,-0.2874,-0.288,-0.2881,-0.2874,-0.2846,-0.2796,-0.276,-0.274,-0.2739,-0.2716,-0.2705,-0.2726,-0.2714,-0.2716,-0.2718,-0.2725,-0.2728,-0.2694,-0.2694,-0.2694,-0.2694,0,-0.278,-0.2816,-0.2825,-0.2874,-0.2896,-0.2918,-0.2934,-0.2948,-0.2933,-0.2929,-0.2905,-0.2857,-0.2825,-0.2805,-0.2777,-0.2773,-0.2765,-0.2722,-0.2707,-0.2725,-0.2731,-0.2733,-0.2698,-0.2697,-0.2696,-0.2695,0,0,-0.2766,-0.2839,-0.2842,-0.2869,-0.2922,-0.2938,-0.2974,-0.2994,-0.3008,-0.2987,-0.2992,-0.2939,-0.291,-0.2888,-0.2846,-0.2826,-0.283,-0.2789,-0.2786,-0.2806,-0.2791,-0.2919,-0.2933,-0.2774,-0.2775,-0.2775,-0.2796,0,-0.2789,-0.2854,-0.2892,-0.2944,-0.297,-0.2998,-0.3034,-0.3055,-0.3052,-0.3058,-0.3006,-0.2986,-0.2941,-0.2921,-0.2897,-0.2843,-0.2835,-0.2831,-0.2766,-0.2765,-0.2882,-0.2939,-0.2798,-0.2816,-0.2798,-0.2798,-0.2798,0,-0.281,-0.2849,-0.2907,-0.2974,-0.2988,-0.3024,-0.3067,-0.3103,-0.312,-0.3118,-0.3098,-0.3062,-0.3037,-0.2988,-0.2927,-0.2923,-0.2877,-0.2837,-0.2835,-0.2946,-0.2897,-0.2792,-0.282,-0.2641,-0.2801,-0.2801,-0.2801,0,-0.277,-0.2853,-0.2892,-0.2917,-0.3,-0.3023,-0.306,-0.3103,-0.3133,-0.3148,-0.317,-0.3125,-0.311,-0.3038,-0.2978,-0.294,-0.2927,-0.2849,-0.2928,-0.2936,-0.2805,-0.2804,-0.2662,-0.282,-0.282,-0.282,-0.282,0,-0.2766,-0.2792,-0.2872,-0.2887,-0.2938,-0.3001,-0.3046,-0.309,-0.3149,-0.3196,-0.3186,-0.322,-0.3121,-0.3102,-0.3019,-0.3019,-0.2954,-0.2979,-0.2961,-0.2823,-0.2822,-0.2654,-0.2635,-0.2821,-0.2821,-0.2821,-0.2821,0,-0.2708,-0.2767,-0.281,-0.289,-0.2918,-0.2944,-0.304,-0.3076,-0.315,-0.3219,-0.3228,-0.328,-0.3285,-0.322,-0.3132,-0.3102,-0.2992,-0.3066,-0.2953,-0.2926,-0.2872,-0.2865,-0.2857,-0.2795,-0.3163,-0.3166,-0.3169,0,-0.2681,-0.2696,-0.2784,-0.2811,-0.2842,-0.2897,-0.2946,-0.3049,-0.3108,-0.3261,-0.3299,-0.3358,-0.3405,-0.3389,-0.3361,-0.3308,-0.31,-0.312,-0.3042,-0.2903,-0.2875,-0.2847,-0.279,-0.2862,-0.2862,-0.2862,-0.2862,0,-0.2604,-0.2636,-0.2662,-0.2725,-0.2774,-0.2856,-0.2938,-0.3,-0.3145,-0.3228,-0.336,-0.3416,-0.3519,-0.3444,-0.3446,-0.3365,-0.3012,-0.3133,-0.2948,-0.265,-0.264,-0.2557,-0.2845,-0.2863,-0.2863,-0.2863,-0.2863,-0.2863,-0.2517,-0.2518,-0.2552,-0.2602,-0.2692,-0.2798,-0.2812,-0.2939,-0.3046,-0.3139,-0.3305,-0.3286,-0.3286,-0.333,-0.3344,-0.3112,-0.3186,-0.2845,-0.2853,-0.2842,-0.2777,-0.3159,-0.3199,-0.3201,-0.3202,-0.3204,-0.3205,0,-0.238,-0.2392,-0.2429,-0.2496,-0.256,-0.2655,-0.2788,-0.2779,-0.2864,-0.2935,-0.3021,-0.2915,-0.2882,-0.2836,-0.2743,-0.2701,-0.2655,-0.2559,-0.2341,-0.2301,-0.2541,-0.2516,-0.2457,-0.2457,-0.2457,-0.2458,-0.2458,-0.2458,-0.2297,-0.2264,-0.2287,-0.2328,-0.2399,-0.2431,-0.2482,-0.2502,-0.2505,-0.2403,-0.2287,-0.2345,-0.2203,-0.2283,-0.2136,-0.2145,-0.2028,-0.2102,-0.2117,-0.2101,-0.212,-0.2139,-0.2099,-0.1954,-0.1954,-0.1709,-0.1707,-0.1706]},{"header":{"parameterUnit":"m.s-1","parameterCategory":2,"la1":30.2991,"la2":30.254,"lo1":-89.0895,"lo2":-89.0444,"dy":0.0017,"dx":0.0017,"nx":28,"ny":28,"refTime":"2025-07-17T09:00:00:Z","depth":"0","parameterNumber":3,"parameterNumberName":"V-component_of_CURRENTS"},"data":[0,0,0,0,0,0,0,0,0,0,0,0,0,0,0,0,0,0,0,0,0,0,0,0,0,0,0,0,0,0,0,0,0,0,0,0,0,0,0,0,0,0,0,0,0,0,0,0,0,0,0,0,0,0,0,0,0,0,-0.1653,-0.1652,0,-0.149,-0.1487,-0.1485,-0.1417,-0.1418,-0.1419,-0.142,-0.1222,-0.1216,-0.121,0,0,0,0,0,0,0,0,0,0,0,0,0,-0.1634,-0.1635,-0.1653,-0.1652,-0.165,-0.149,-0.1487,-0.1484,-0.1417,-0.1418,-0.1419,-0.1421,-0.1224,-0.1217,-0.1209,0,0,0,0,0,0,0,0,0,0,0,0,0,-0.1566,-0.1636,-0.1653,-0.1604,-0.1598,-0.1491,-0.1487,-0.1483,-0.1416,-0.1418,-0.142,-0.1421,-0.1227,-0.1217,-0.1208,-0.1116,0,0,-0.1179,-0.1175,0,0,0,0,0,0,0,0,-0.157,-0.1566,-0.1612,-0.1607,-0.1601,-0.1483,-0.1408,-0.1362,-0.1416,-0.1476,-0.142,-0.1422,-0.131,-0.1294,-0.1248,-0.1106,-0.1098,-0.1178,-0.1172,-0.1168,-0.1166,0,0,0,0,0,0,0,-0.1575,-0.1571,-0.1579,-0.1611,-0.1604,-0.1497,-0.1491,-0.1397,-0.1378,-0.1471,-0.1468,-0.1463,-0.1306,-0.1257,-0.1243,-0.1095,-0.1178,-0.117,-0.1164,-0.116,-0.0899,-0.0898,0,0,0,0,0,0,-0.1626,-0.1577,-0.1585,-0.1575,-0.1599,-0.1498,-0.1491,-0.1512,-0.138,-0.1364,-0.1462,-0.1461,-0.1273,-0.1254,-0.1236,-0.1147,-0.1168,-0.116,-0.1154,-0.09,-0.0899,-0.0897,0,0,0,0,0,0,-0.1626,-0.1629,-0.1591,-0.1577,-0.1566,-0.15,-0.1522,-0.1508,-0.1466,-0.1375,-0.1357,-0.1437,-0.1273,-0.1249,-0.1163,-0.1138,-0.1155,-0.1147,-0.0902,-0.09,-0.0898,-0.095,0,0,0,0,0,0,-0.1627,-0.1631,-0.1641,-0.1582,-0.157,-0.1532,-0.1521,-0.1504,-0.1465,-0.1461,-0.1347,-0.133,-0.1273,-0.1178,-0.1154,-0.1125,-0.1139,-0.0903,-0.0901,-0.0899,-0.095,-0.0951,-0.0951,0,0,0,0,0,-0.1627,-0.1638,-0.1643,-0.1642,-0.1595,-0.1532,-0.1513,-0.1464,-0.1462,-0.1433,-0.137,-0.1334,-0.1146,-0.1169,-0.1141,-0.1109,-0.0904,-0.0902,-0.0899,-0.095,-0.0951,-0.0951,0,0,0,0,0,0,-0.162,-0.1632,-0.1635,-0.1648,-0.16,-0.1525,-0.1494,-0.1465,-0.1386,-0.1389,-0.1309,-0.1285,-0.1201,-0.1145,-0.1172,-0.1027,-0.1021,-0.1013,-0.107,-0.1069,-0.107,-0.1073,-0.1131,0,0,0,0,0,-0.1633,-0.1653,-0.1628,-0.163,-0.1619,-0.1557,-0.1522,-0.1493,-0.1429,-0.1396,-0.1317,-0.1237,-0.1161,-0.1114,-0.1032,-0.0943,-0.0896,-0.0906,-0.0907,-0.0907,-0.0891,-0.0815,-0.0808,-0.0888,-0.0888,-0.0888,0,0,-0.1626,-0.1637,-0.1644,-0.163,-0.1593,-0.1555,-0.1538,-0.1494,-0.1447,-0.1385,-0.1288,-0.1229,-0.1139,-0.105,-0.1007,-0.1003,-0.0861,-0.0904,-0.0905,-0.0888,-0.0811,-0.0804,-0.0797,-0.0886,-0.0886,-0.0887,0,0,-0.1617,-0.1642,-0.1651,-0.1621,-0.159,-0.1547,-0.1544,-0.1471,-0.143,-0.134,-0.1293,-0.1221,-0.1088,-0.1021,-0.0973,-0.0918,-0.0868,-0.09,-0.0894,-0.0822,-0.0815,-0.0808,-0.0752,-0.074,-0.0897,-0.0897,-0.0897,0,-0.1611,-0.1634,-0.1629,-0.1619,-0.1596,-0.1554,-0.1529,-0.1466,-0.1365,-0.1326,-0.132,-0.1133,-0.1068,-0.0961,-0.0954,-0.0916,-0.0879,-0.0907,-0.0824,-0.0817,-0.0809,-0.0752,-0.0738,-0.0899,-0.0899,-0.0899,-0.0899,0,-0.1602,-0.1613,-0.1611,-0.1601,-0.1558,-0.1535,-0.1473,-0.1414,-0.1369,-0.1308,-0.1199,-0.1105,-0.1001,-0.0973,-0.0945,-0.0855,-0.0849,-0.0841,-0.0832,-0.0804,-0.0746,-0.073,-0.0903,-0.0902,-0.0901,-0.0901,0,0,-0.1621,-0.1615,-0.1614,-0.1619,-0.156,-0.1533,-0.1451,-0.1375,-0.1331,-0.1226,-0.1151,-0.1029,-0.0994,-0.0937,-0.0889,-0.0827,-0.0754,-0.082,-0.0815,-0.0779,-0.0608,-0.0619,-0.0602,-0.0744,-0.0742,-0.0739,-0.0595,0,-0.1622,-0.1634,-0.1603,-0.1577,-0.1583,-0.1513,-0.1439,-0.1356,-0.1282,-0.1191,-0.1094,-0.1004,-0.0976,-0.0939,-0.0869,-0.077,-0.0713,-0.0794,-0.0625,-0.062,-0.0645,-0.0584,-0.0473,-0.0337,-0.058,-0.0577,-0.0575,0,-0.1625,-0.1646,-0.1644,-0.1612,-0.1602,-0.1562,-0.1472,-0.1395,-0.1258,-0.1195,-0.1088,-0.1013,-0.088,-0.0885,-0.0688,-0.0746,-0.0683,-0.0618,-0.0611,-0.0587,-0.06,-0.0397,-0.0298,-0.0078,-0.055,-0.0552,-0.0554,0,-0.1674,-0.1666,-0.1681,-0.1671,-0.1615,-0.1588,-0.1537,-0.1411,-0.1349,-0.1203,-0.1144,-0.0981,-0.0891,-0.077,-0.0643,-0.0659,-0.0453,-0.0452,-0.0399,-0.04,-0.025,-0.0243,0.0076,-0.0334,-0.0334,-0.0335,-0.0335,0,-0.1699,-0.1704,-0.1724,-0.1733,-0.1731,-0.1659,-0.161,-0.1521,-0.1399,-0.1329,-0.1167,-0.1081,-0.0862,-0.0726,-0.0626,-0.0457,-0.0431,-0.0373,-0.0351,-0.0269,-0.0265,-0.0025,0.0053,-0.0329,-0.033,-0.0331,-0.0332,0,-0.1713,-0.1733,-0.1757,-0.1755,-0.176,-0.1751,-0.1683,-0.1647,-0.1506,-0.1408,-0.1362,-0.1128,-0.0933,-0.0745,-0.0528,-0.0427,-0.0138,-0.0249,-0.018,-0.0153,0.0103,0.017,0.0457,0.0592,-0.0121,-0.0121,-0.012,0,-0.1705,-0.1735,-0.1792,-0.1833,-0.1838,-0.1832,-0.1828,-0.1716,-0.1675,-0.1452,-0.1418,-0.1188,-0.106,-0.072,-0.0445,-0.022,-0.0095,-0.0023,-0.0028,0.0162,0.0256,0.0275,0.0371,0.0158,0.0161,0.0163,0.0165,0,-0.1684,-0.1721,-0.175,-0.1873,-0.1919,-0.1944,-0.1936,-0.192,-0.1772,-0.1691,-0.1552,-0.1434,-0.103,-0.0682,-0.0348,-0.0199,0.0183,0.0027,0.0251,0.053,0.0556,0.068,-0.0006,0.0186,0.0184,0.0183,0.0181,0.0181,-0.165,-0.1687,-0.1778,-0.188,-0.1969,-0.2049,-0.2055,-0.2042,-0.1997,-0.1848,-0.1726,-0.1439,-0.0865,-0.0347,-0.0173,0.0402,0.0326,0.0564,0.0638,0.0644,0.0769,0.0096,0.0277,0.0275,0.0274,0.0273,0.0272,0,-0.1596,-0.1677,-0.1785,-0.1926,-0.2058,-0.209,-0.2122,-0.2111,-0.2097,-0.1885,-0.1784,-0.1037,-0.0546,0.0038,0.0763,0.1019,0.1104,0.1164,0.1296,0.137,0.0836,0.0843,0.1124,0.1124,0.1124,0.1124,0.1124,0.1123,-0.1573,-0.166,-0.1751,-0.1979,-0.2097,-0.2209,-0.223,-0.2199,-0.2033,-0.1636,-0.1141,-0.0788,0.0089,0.0952,0.157,0.1643,0.1902,0.1866,0.1958,0.1667,0.1619,0.1573,0.1603,0.2039,0.204,0.2524,0.2529,0.2533]}],[{"header":{"parameterUnit":"m.s-1","parameterCategory":2,"la1":30.2991,"la2":30.254,"lo1":-89.0895,"lo2":-89.0444,"dy":0.0017,"dx":0.0017,"nx":28,"ny":28,"refTime":"2025-07-17T09:00:00:Z","depth":"2","parameterNumber":2,"parameterNumberName":"U-component_of_CURRENTS"},"data":[0,0,0,0,0,0,0,0,0,0,0,0,0,0,0,0,0,0,0,0,0,0,0,0,0,0,0,0,0,0,0,0,0,0,0,0,0,0,0,0,0,0,0,0,0,0,0,0,0,0,0,0,0,0,0,0,0,0,-0.3308,-0.3307,0,-0.3244,-0.3244,-0.3243,-0.3177,-0.3176,-0.3175,-0.3173,-0.3057,-0.3055,-0.3053,0,0,0,0,0,0,0,0,0,0,0,0,0,-0.3185,-0.3189,-0.3308,-0.3307,-0.3306,-0.3244,-0.3244,-0.3243,-0.3177,-0.3176,-0.3174,-0.3173,-0.3058,-0.3056,-0.3053,0,0,0,0,0,0,0,0,0,0,0,0,0,-0.3195,-0.319,-0.3309,-0.3263,-0.3258,-0.3244,-0.3244,-0.3243,-0.3178,-0.3176,-0.3174,-0.3172,-0.3059,-0.3056,-0.3053,-0.3073,0,0,-0.3044,-0.3043,0,0,0,0,0,0,0,0,-0.3195,-0.3201,-0.3271,-0.3266,-0.326,-0.3214,-0.3157,-0.3182,-0.3178,-0.3212,-0.3173,-0.3171,-0.3104,-0.3097,-0.3095,-0.3067,-0.3062,-0.3044,-0.3042,-0.3041,-0.304,0,0,0,0,0,0,0,-0.3195,-0.3202,-0.3287,-0.327,-0.3263,-0.3181,-0.3182,-0.3161,-0.3171,-0.3209,-0.3203,-0.3191,-0.3101,-0.3098,-0.3092,-0.306,-0.3044,-0.3041,-0.304,-0.3038,-0.299,-0.299,0,0,0,0,0,0,-0.3208,-0.3203,-0.3289,-0.3284,-0.3218,-0.3185,-0.3187,-0.3234,-0.3172,-0.316,-0.3192,-0.3188,-0.3104,-0.3095,-0.3087,-0.3056,-0.3041,-0.3038,-0.3036,-0.2989,-0.299,-0.299,0,0,0,0,0,0,-0.3207,-0.3219,-0.3291,-0.3234,-0.3237,-0.319,-0.3242,-0.3233,-0.3217,-0.316,-0.3147,-0.3183,-0.3102,-0.3091,-0.3089,-0.3053,-0.3037,-0.3034,-0.2989,-0.2989,-0.299,-0.3027,0,0,0,0,0,0,-0.3205,-0.3221,-0.3261,-0.3238,-0.3241,-0.3312,-0.3243,-0.3233,-0.3211,-0.3204,-0.3148,-0.3136,-0.31,-0.3094,-0.3086,-0.3049,-0.3032,-0.2988,-0.2989,-0.299,-0.3025,-0.3029,-0.3032,0,0,0,0,0,-0.3202,-0.3282,-0.3265,-0.3273,-0.33,-0.3314,-0.331,-0.3268,-0.3212,-0.3239,-0.3194,-0.3137,-0.3091,-0.3094,-0.3084,-0.3044,-0.2988,-0.2989,-0.299,-0.3024,-0.3028,-0.3032,0,0,0,0,0,0,-0.3267,-0.3281,-0.3262,-0.3348,-0.3336,-0.3302,-0.3311,-0.327,-0.3254,-0.3231,-0.3167,-0.3156,-0.312,-0.3101,-0.3105,-0.3035,-0.302,-0.3019,-0.3048,-0.3052,-0.3055,-0.3061,-0.303,0,0,0,0,0,-0.3296,-0.333,-0.3339,-0.3386,-0.3397,-0.3346,-0.3339,-0.331,-0.3285,-0.3274,-0.3219,-0.3164,-0.3121,-0.3106,-0.3067,-0.3059,-0.3034,-0.3021,-0.3024,-0.3027,-0.3027,-0.2967,-0.2965,-0.2994,-0.2994,-0.2994,0,0,-0.3312,-0.3329,-0.3341,-0.3395,-0.3374,-0.3381,-0.334,-0.334,-0.3313,-0.3264,-0.3214,-0.3172,-0.3121,-0.3094,-0.3075,-0.3073,-0.3015,-0.3029,-0.3031,-0.3029,-0.2968,-0.2965,-0.2962,-0.2994,-0.2994,-0.2994,0,0,-0.3339,-0.3401,-0.3423,-0.343,-0.342,-0.3407,-0.3408,-0.3377,-0.3348,-0.3327,-0.3252,-0.3216,-0.3159,-0.3112,-0.3082,-0.3091,-0.3026,-0.3056,-0.3084,-0.3026,-0.3023,-0.302,-0.3023,-0.3019,-0.3067,-0.3067,-0.3067,0,-0.3348,-0.3404,-0.3428,-0.3446,-0.3437,-0.3417,-0.3421,-0.3405,-0.3359,-0.3331,-0.332,-0.3202,-0.3165,-0.3103,-0.3105,-0.3093,-0.3069,-0.307,-0.3029,-0.3025,-0.3021,-0.3024,-0.302,-0.3069,-0.3069,-0.3069,-0.3069,0,-0.3383,-0.3417,-0.3437,-0.3445,-0.345,-0.3465,-0.3446,-0.3436,-0.3391,-0.3347,-0.3284,-0.3247,-0.3178,-0.3149,-0.3135,-0.307,-0.3068,-0.3031,-0.3017,-0.302,-0.3024,-0.3019,-0.3072,-0.3071,-0.3071,-0.307,0,0,-0.3407,-0.3452,-0.3448,-0.344,-0.3456,-0.3457,-0.3444,-0.3428,-0.3393,-0.3352,-0.3299,-0.3237,-0.32,-0.3166,-0.312,-0.3084,-0.3056,-0.3054,-0.305,-0.3056,-0.2964,-0.2998,-0.2996,-0.2997,-0.2995,-0.2994,-0.2993,0,-0.341,-0.3442,-0.3463,-0.3452,-0.3465,-0.3461,-0.3447,-0.3417,-0.3389,-0.3346,-0.3294,-0.3233,-0.3207,-0.3176,-0.3133,-0.3067,-0.3036,-0.3062,-0.2962,-0.296,-0.2986,-0.2988,-0.2614,-0.2583,-0.2987,-0.2986,-0.2986,0,-0.3423,-0.3441,-0.3446,-0.3449,-0.3456,-0.3443,-0.3418,-0.3404,-0.3362,-0.3344,-0.329,-0.3243,-0.3193,-0.3166,-0.307,-0.3083,-0.3029,-0.2986,-0.2983,-0.2993,-0.2982,-0.2637,-0.2558,-0.2976,-0.2977,-0.2978,-0.2978,0,-0.3381,-0.3424,-0.342,-0.3421,-0.3429,-0.3415,-0.3416,-0.3383,-0.3376,-0.333,-0.3336,-0.3247,-0.3235,-0.3131,-0.3086,-0.3057,-0.2996,-0.2939,-0.2921,-0.2925,-0.2578,-0.2555,-0.2852,-0.2852,-0.2852,-0.2852,-0.2852,0,-0.3363,-0.3339,-0.3402,-0.3379,-0.3353,-0.3386,-0.3349,-0.3339,-0.3359,-0.3344,-0.3322,-0.3296,-0.3222,-0.3187,-0.3096,-0.303,-0.3005,-0.2931,-0.2915,-0.259,-0.2569,-0.2877,-0.288,-0.2852,-0.2852,-0.2852,-0.2852,0,-0.3222,-0.3294,-0.3262,-0.33,-0.3309,-0.3263,-0.3304,-0.332,-0.3353,-0.3344,-0.3343,-0.3351,-0.3314,-0.3274,-0.3152,-0.3081,-0.2983,-0.296,-0.2639,-0.2586,-0.2946,-0.2951,-0.291,-0.2911,-0.2912,-0.2913,-0.2913,0,-0.3118,-0.3109,-0.3147,-0.3155,-0.3148,-0.3144,-0.3174,-0.3254,-0.3286,-0.3347,-0.3347,-0.3371,-0.3272,-0.3192,-0.3048,-0.2925,-0.3035,-0.2607,-0.2481,-0.2958,-0.2946,-0.295,-0.2953,-0.2036,-0.2029,-0.2023,-0.2019,0,-0.2884,-0.2919,-0.2912,-0.2947,-0.298,-0.3021,-0.3076,-0.3093,-0.3207,-0.3178,-0.3141,-0.3067,-0.3051,-0.2745,-0.2725,-0.2594,-0.2598,-0.2502,-0.3,-0.2131,-0.2146,-0.2132,-0.216,-0.197,-0.1975,-0.1979,-0.1981,-0.1983,-0.2679,-0.2636,-0.2691,-0.2697,-0.2788,-0.2853,-0.2764,-0.285,-0.2792,-0.2701,-0.2846,-0.2631,-0.2555,-0.2279,-0.2187,-0.2173,-0.2337,-0.2179,-0.2188,-0.2204,-0.2155,-0.2175,-0.1998,-0.2003,-0.2007,-0.2011,-0.2014,0,-0.2427,-0.2447,-0.2457,-0.248,-0.2522,-0.2653,-0.2672,-0.2529,-0.2319,-0.2365,-0.2247,-0.1914,-0.1692,-0.175,-0.1584,-0.1581,-0.1468,-0.1575,-0.1364,-0.141,-0.1452,-0.136,-0.0995,-0.0993,-0.0992,-0.0991,0,0,-0.2297,-0.2233,-0.2262,-0.2213,-0.2267,-0.2195,-0.2146,-0.1909,-0.1819,-0.1602,-0.1495,-0.1546,-0.1582,-0.1243,-0.1178,-0.1092,-0.1251,-0.1033,-0.1818,-0.1608,-0.1649,-0.1741,-0.1646,0,0,0,0,0]},{"header":{"parameterUnit":"m.s-1","parameterCategory":2,"la1":30.2991,"la2":30.254,"lo1":-89.0895,"lo2":-89.0444,"dy":0.0017,"dx":0.0017,"nx":28,"ny":28,"refTime":"2025-07-17T09:00:00:Z","depth":"2","parameterNumber":3,"parameterNumberName":"V-component_of_CURRENTS"},"data":[0,0,0,0,0,0,0,0,0,0,0,0,0,0,0,0,0,0,0,0,0,0,0,0,0,0,0,0,0,0,0,0,0,0,0,0,0,0,0,0,0,0,0,0,0,0,0,0,0,0,0,0,0,0,0,0,0,0,0.0316,0.0313,0,0.0234,0.0235,0.0236,0.0159,0.0156,0.0153,0.015,0.0093,0.0094,0.0096,0,0,0,0,0,0,0,0,0,0,0,0,0,0.0528,0.0526,0.0316,0.0313,0.0309,0.0233,0.0235,0.0236,0.016,0.0156,0.0152,0.0148,0.0092,0.0094,0.0096,0,0,0,0,0,0,0,0,0,0,0,0,0,0.0463,0.0525,0.0316,0.0244,0.0235,0.0233,0.0235,0.0236,0.016,0.0156,0.0151,0.0146,0.0092,0.0094,0.0096,0.0206,0,0,0.0103,0.0104,0,0,0,0,0,0,0,0,0.0467,0.0458,0.0258,0.0249,0.0238,0.018,0.0287,0.0219,0.0162,0.0215,0.015,0.0144,0.0112,0.0112,0.0142,0.0203,0.0201,0.0103,0.0104,0.0105,0.0106,0,0,0,0,0,0,0,0.0471,0.0462,0.0308,0.0254,0.0242,0.0255,0.0242,0.0276,0.0211,0.021,0.0198,0.0151,0.011,0.014,0.014,0.02,0.0103,0.0105,0.0106,0.0107,0.0223,0.0225,0,0,0,0,0,0,0.043,0.0466,0.031,0.0303,0.0315,0.0253,0.024,0.0224,0.021,0.0195,0.0155,0.0147,0.0139,0.0137,0.0137,0.0137,0.0105,0.0107,0.0109,0.0222,0.0224,0.0226,0,0,0,0,0,0,0.0436,0.0419,0.0313,0.0361,0.0345,0.0251,0.0236,0.0224,0.0177,0.0163,0.0154,0.0107,0.0135,0.0134,0.015,0.0138,0.0108,0.011,0.0219,0.0222,0.0225,0.0219,0,0,0,0,0,0,0.0444,0.0423,0.0399,0.0359,0.034,0.0267,0.0237,0.0225,0.0148,0.0136,0.0121,0.0115,0.0131,0.0147,0.0152,0.0141,0.0112,0.0217,0.0221,0.0224,0.0217,0.0221,0.0225,0,0,0,0,0,0.0453,0.0408,0.04,0.0379,0.0311,0.0263,0.0258,0.0192,0.0149,0.0135,0.0148,0.0111,0.017,0.0152,0.0157,0.0145,0.0216,0.022,0.0224,0.0215,0.022,0.0224,0,0,0,0,0,0,0.0459,0.0394,0.0383,0.0315,0.0276,0.0239,0.0191,0.0164,0.0168,0.0149,0.015,0.0148,0.0153,0.0167,0.0146,0.0193,0.0181,0.0187,0.0173,0.0178,0.0182,0.0161,0.0114,0,0,0,0,0,0.0459,0.0412,0.0368,0.0302,0.0282,0.0242,0.0206,0.0177,0.0161,0.0152,0.0139,0.0153,0.0195,0.0192,0.0224,0.026,0.0277,0.0254,0.0258,0.0261,0.0252,0.0324,0.0332,0.0239,0.0239,0.0239,0,0,0.0419,0.0384,0.0344,0.03,0.0266,0.0249,0.0213,0.0146,0.0141,0.0153,0.0134,0.0159,0.0209,0.0249,0.025,0.0243,0.0294,0.0266,0.0268,0.0257,0.0329,0.0338,0.0345,0.0241,0.0241,0.024,0,0,0.0341,0.0313,0.0267,0.0251,0.0193,0.02,0.0166,0.0129,0.0118,0.0141,0.0146,0.0177,0.0209,0.0256,0.0289,0.0339,0.0312,0.0318,0.0318,0.0388,0.0395,0.0402,0.0414,0.0422,0.032,0.032,0.032,0,0.0307,0.0252,0.024,0.0215,0.0178,0.0171,0.0136,0.0159,0.0131,0.0138,0.0123,0.0202,0.0231,0.0303,0.0321,0.0344,0.0351,0.0291,0.0391,0.0398,0.0405,0.0416,0.0425,0.032,0.032,0.032,0.032,0,0.0217,0.018,0.0142,0.0131,0.0117,0.007,0.0098,0.01,0.0097,0.0119,0.0157,0.0232,0.027,0.0291,0.0326,0.0383,0.0357,0.0385,0.037,0.0414,0.0422,0.0432,0.032,0.032,0.032,0.032,0,0,0.0126,0.009,0.0074,0.0073,0.0067,0.0053,0.0071,0.0094,0.0103,0.0134,0.0155,0.0252,0.0262,0.0301,0.0337,0.0401,0.0465,0.04,0.0403,0.0394,0.0564,0.0689,0.0711,0.0497,0.05,0.0501,0.054,0,0.0058,0.0007,0.0004,-0.0031,-0.0043,-0.0016,-0.0002,0.0034,0.0084,0.0123,0.0214,0.0255,0.0278,0.0294,0.0366,0.0449,0.0492,0.0449,0.0537,0.0539,0.0634,0.0729,0.0576,0.0611,0.0549,0.055,0.0552,0,-0.0015,-0.0031,-0.0095,-0.0083,-0.0092,-0.0111,-0.0072,-0.0052,0.0037,0.007,0.0139,0.0205,0.0303,0.0324,0.0468,0.0428,0.0482,0.0544,0.0548,0.0674,0.0686,0.0566,0.0631,0.0567,0.0566,0.0565,0.0564,0,-0.0056,-0.0086,-0.0141,-0.0148,-0.0143,-0.0167,-0.0156,-0.0092,-0.0066,0.0031,0.0073,0.0186,0.0261,0.0355,0.0499,0.0471,0.0661,0.0649,0.08,0.0805,0.0701,0.0698,0.0741,0.0741,0.0741,0.0741,0.0741,0,-0.0116,-0.0158,-0.0172,-0.0208,-0.0268,-0.022,-0.0251,-0.0223,-0.0142,-0.0078,0.0023,0.0124,0.0277,0.0419,0.0501,0.0704,0.0667,0.0818,0.0852,0.0697,0.0693,0.0677,0.0669,0.0742,0.0742,0.0742,0.0742,0,-0.0199,-0.0207,-0.0261,-0.0281,-0.031,-0.035,-0.0358,-0.0334,-0.0255,-0.0157,-0.0127,0.0082,0.0279,0.0429,0.0623,0.0741,0.0895,0.0959,0.0752,0.0766,0.0965,0.0956,0.112,0.1125,0.113,0.1133,0.1137,0,-0.0273,-0.0321,-0.0365,-0.041,-0.0456,-0.0495,-0.0526,-0.0448,-0.0358,-0.0152,-0.0069,0.0134,0.0295,0.0619,0.0816,0.0982,0.1003,0.1027,0.0997,0.1002,0.1017,0.1001,0.0987,0.0809,0.0809,0.0809,0.0809,0,-0.0427,-0.0448,-0.0472,-0.0565,-0.062,-0.0619,-0.0593,-0.0532,-0.0357,-0.0284,-0.0054,0.0066,0.0392,0.0589,0.0866,0.0956,0.0997,0.1048,0.1112,0.0788,0.0729,0.0738,0.0729,0.0811,0.0811,0.0811,0.0811,0.0811,-0.0548,-0.0598,-0.063,-0.0724,-0.0751,-0.0687,-0.065,-0.0555,-0.0458,-0.0273,-0.009,0.008,0.0339,0.0687,0.0843,0.1018,0.1063,0.1094,0.1084,0.1075,0.1085,0.1044,0.118,0.1182,0.1183,0.1185,0.1186,0,-0.066,-0.0722,-0.0798,-0.08,-0.0785,-0.0812,-0.066,-0.0585,-0.048,-0.0341,-0.0218,0.0039,0.0277,0.0553,0.0792,0.0989,0.0868,0.1033,0.081,0.0809,0.0808,0.0795,0.0818,0.0817,0.0817,0.0817,0,0,-0.0707,-0.0795,-0.0824,-0.0835,-0.0847,-0.0772,-0.0681,-0.0631,-0.0489,-0.0433,-0.0303,-0.0084,0.0303,0.0423,0.0598,0.0708,0.0698,0.0697,0.0967,0.0673,0.0669,0.082,0.0801,0,0,0,0,0]}],[{"header":{"parameterUnit":"m.s-1","parameterCategory":2,"la1":30.2991,"la2":30.254,"lo1":-89.0895,"lo2":-89.0444,"dy":0.0017,"dx":0.0017,"nx":28,"ny":28,"refTime":"2025-07-17T09:00:00:Z","depth":"4","parameterNumber":2,"parameterNumberName":"U-component_of_CURRENTS"},"data":[0,0,0,0,0,0,0,0,0,0,0,0,0,0,0,0,0,0,0,0,0,0,0,0,0,0,0,0,0,0,0,0,0,0,0,0,0,0,0,0,0,0,0,0,0,0,0,0,0,0,0,0,0,0,0,0,0,0,-0.1181,-0.1182,0,-0.1248,-0.1249,-0.125,-0.1289,-0.1289,-0.1289,-0.1289,-0.1347,-0.1349,-0.135,0,0,0,0,0,0,0,0,0,0,0,0,0,-0.1119,-0.112,-0.1181,-0.1182,-0.1182,-0.1248,-0.1249,-0.125,-0.1289,-0.1289,-0.1289,-0.1289,-0.1347,-0.1349,-0.135,0,0,0,0,0,0,0,0,0,0,0,0,0,-0.1164,-0.1121,-0.1181,-0.1208,-0.1211,-0.1248,-0.1249,-0.125,-0.1289,-0.1289,-0.1289,-0.1289,-0.1346,-0.1348,-0.1351,-0.1365,0,0,-0.1358,-0.1359,0,0,0,0,0,0,0,0,-0.1161,-0.1166,-0.1204,-0.1207,-0.121,-0.1259,-0.1249,-0.1288,-0.1289,-0.1261,-0.1289,-0.1289,-0.1316,-0.1321,-0.1336,-0.1367,-0.137,-0.1358,-0.1359,-0.136,-0.1361,0,0,0,0,0,0,0,-0.1158,-0.1163,-0.1209,-0.1204,-0.1208,-0.1229,-0.1235,-0.1257,-0.1288,-0.1263,-0.1266,-0.1271,-0.1318,-0.1333,-0.1337,-0.1371,-0.1358,-0.136,-0.1361,-0.1362,-0.1541,-0.1544,0,0,0,0,0,0,-0.1145,-0.116,-0.1207,-0.1211,-0.1183,-0.1229,-0.1236,-0.1244,-0.1289,-0.1295,-0.1271,-0.1273,-0.1329,-0.1334,-0.1339,-0.1455,-0.136,-0.1363,-0.1364,-0.1538,-0.1542,-0.1545,0,0,0,0,0,0,-0.1143,-0.1148,-0.1204,-0.1186,-0.1194,-0.123,-0.1239,-0.1246,-0.128,-0.1294,-0.1301,-0.13,-0.1329,-0.1336,-0.1388,-0.1454,-0.1364,-0.1366,-0.1534,-0.1539,-0.1543,-0.1625,0,0,0,0,0,0,-0.1141,-0.1148,-0.116,-0.1185,-0.1195,-0.123,-0.1239,-0.1247,-0.1281,-0.1284,-0.1321,-0.1325,-0.133,-0.1385,-0.139,-0.1455,-0.1367,-0.1529,-0.1536,-0.1542,-0.1618,-0.1632,-0.1644,0,0,0,0,0,-0.1139,-0.1148,-0.116,-0.1166,-0.1207,-0.123,-0.1238,-0.1264,-0.1282,-0.1296,-0.1337,-0.1325,-0.143,-0.1389,-0.1395,-0.1462,-0.1526,-0.1534,-0.1541,-0.1612,-0.1629,-0.1643,0,0,0,0,0,0,-0.1134,-0.1153,-0.1167,-0.1184,-0.1209,-0.1236,-0.1253,-0.1277,-0.1321,-0.1333,-0.1352,-0.136,-0.1434,-0.1438,-0.1392,-0.1536,-0.1483,-0.1492,-0.1535,-0.1551,-0.1564,-0.1562,-0.1369,0,0,0,0,0,-0.1137,-0.1143,-0.1171,-0.1185,-0.1199,-0.1233,-0.1251,-0.1272,-0.1307,-0.1328,-0.136,-0.1409,-0.1468,-0.1498,-0.1533,-0.1601,-0.1554,-0.1656,-0.1669,-0.168,-0.1686,-0.1736,-0.1754,-0.157,-0.157,-0.157,0,0,-0.1144,-0.1149,-0.1159,-0.1184,-0.1206,-0.1231,-0.1245,-0.1275,-0.1323,-0.1327,-0.1405,-0.1445,-0.1494,-0.1577,-0.1613,-0.159,-0.1685,-0.169,-0.1698,-0.1698,-0.1746,-0.1763,-0.1779,-0.1575,-0.1574,-0.1573,0,0,-0.1144,-0.1162,-0.1169,-0.119,-0.1219,-0.1239,-0.1253,-0.1299,-0.135,-0.1429,-0.1456,-0.1512,-0.1613,-0.1644,-0.1681,-0.1782,-0.1747,-0.1837,-0.1909,-0.1958,-0.1973,-0.1986,-0.1835,-0.1835,-0.1852,-0.1852,-0.1853,0,-0.1153,-0.1159,-0.1177,-0.1191,-0.1206,-0.1245,-0.1265,-0.1328,-0.1394,-0.1439,-0.1466,-0.1612,-0.1637,-0.1734,-0.1803,-0.1805,-0.1795,-0.184,-0.1972,-0.1985,-0.1997,-0.1841,-0.1839,-0.1857,-0.1857,-0.1856,-0.1856,0,-0.1152,-0.1172,-0.1177,-0.1203,-0.1227,-0.1246,-0.1318,-0.1378,-0.1449,-0.1506,-0.1629,-0.1685,-0.1774,-0.1813,-0.186,-0.1979,-0.192,-0.1972,-0.1922,-0.202,-0.1848,-0.1844,-0.1864,-0.1862,-0.1861,-0.186,0,0,-0.1126,-0.1168,-0.1171,-0.1187,-0.1232,-0.1249,-0.134,-0.1416,-0.1482,-0.1594,-0.1669,-0.1819,-0.1869,-0.1916,-0.1971,-0.2038,-0.2074,-0.2088,-0.2089,-0.1915,-0.2083,-0.1988,-0.1971,-0.221,-0.2213,-0.2215,-0.1886,0,-0.1116,-0.1129,-0.1161,-0.1194,-0.1204,-0.1274,-0.1336,-0.1421,-0.1531,-0.1617,-0.172,-0.1808,-0.1911,-0.1965,-0.2069,-0.2102,-0.2093,-0.215,-0.2036,-0.2026,-0.1918,-0.1977,-0.2224,-0.1882,-0.1881,-0.188,-0.188,0,-0.1088,-0.1098,-0.1119,-0.117,-0.1183,-0.1219,-0.1314,-0.1388,-0.1525,-0.1626,-0.1765,-0.1836,-0.1954,-0.2019,-0.211,-0.2178,-0.2146,-0.2133,-0.2121,-0.2014,-0.1932,-0.1798,-0.1872,-0.1873,-0.1873,-0.1874,-0.1874,0,-0.1013,-0.1065,-0.1074,-0.1094,-0.1163,-0.1207,-0.1253,-0.1379,-0.1449,-0.1624,-0.1662,-0.1847,-0.1906,-0.1994,-0.2035,-0.2107,-0.2058,-0.2108,-0.192,-0.1901,-0.2041,-0.2032,-0.2102,-0.2102,-0.2103,-0.2104,-0.2105,0,-0.0959,-0.0974,-0.1047,-0.1056,-0.1064,-0.1148,-0.1204,-0.1305,-0.1427,-0.1461,-0.166,-0.1699,-0.1947,-0.1959,-0.1991,-0.1941,-0.2009,-0.1913,-0.1861,-0.2063,-0.2062,-0.2027,-0.2023,-0.2091,-0.2094,-0.2096,-0.2099,0,-0.0872,-0.092,-0.0938,-0.1013,-0.1027,-0.104,-0.1131,-0.1176,-0.1317,-0.1361,-0.14,-0.1607,-0.167,-0.1755,-0.1822,-0.183,-0.1783,-0.1705,-0.1766,-0.1722,-0.1563,-0.1568,-0.1458,-0.1453,-0.1449,-0.1445,-0.1442,0,-0.0825,-0.0823,-0.0878,-0.0868,-0.0904,-0.0942,-0.0946,-0.1105,-0.1146,-0.1264,-0.124,-0.1346,-0.1458,-0.1422,-0.1586,-0.154,-0.1564,-0.1453,-0.1679,-0.1562,-0.1521,-0.1532,-0.1541,-0.1436,-0.1434,-0.1433,-0.1432,0,-0.0737,-0.0767,-0.0784,-0.0752,-0.0758,-0.0757,-0.0787,-0.0808,-0.0949,-0.1052,-0.1098,-0.1162,-0.12,-0.1353,-0.1328,-0.1314,-0.153,-0.141,-0.1421,-0.1632,-0.1533,-0.1499,-0.1514,-0.1418,-0.142,-0.1421,-0.1422,0,-0.0672,-0.0655,-0.0671,-0.0639,-0.0618,-0.0577,-0.0624,-0.0662,-0.0728,-0.0877,-0.0872,-0.0999,-0.1156,-0.1215,-0.1182,-0.1205,-0.1236,-0.1228,-0.125,-0.1267,-0.1393,-0.1251,-0.0994,0,0,0,0,0,-0.0601,-0.0581,-0.0546,-0.0508,-0.0476,-0.0465,-0.0504,-0.0569,-0.0678,-0.0675,-0.0798,-0.0827,-0.0923,-0.1013,-0.1012,-0.109,-0.1215,-0.1079,-0.121,-0.1336,-0.1353,-0.154,0,0,0,0,0,0,-0.0558,-0.0538,-0.0526,-0.0402,-0.0342,-0.0302,-0.0329,-0.0402,-0.0439,-0.0571,-0.065,-0.0747,-0.0872,-0.0906,-0.0984,-0.1002,-0.1063,-0.1167,-0.1164,-0.1327,-0.1342,-0.1356,-0.1554,0,0,0,0,0]},{"header":{"parameterUnit":"m.s-1","parameterCategory":2,"la1":30.2991,"la2":30.254,"lo1":-89.0895,"lo2":-89.0444,"dy":0.0017,"dx":0.0017,"nx":28,"ny":28,"refTime":"2025-07-17T09:00:00:Z","depth":"4","parameterNumber":3,"parameterNumberName":"V-component_of_CURRENTS"},"data":[0,0,0,0,0,0,0,0,0,0,0,0,0,0,0,0,0,0,0,0,0,0,0,0,0,0,0,0,0,0,0,0,0,0,0,0,0,0,0,0,0,0,0,0,0,0,0,0,0,0,0,0,0,0,0,0,0,0,0.0104,0.0104,0,0.0105,0.0105,0.0104,0.0163,0.0165,0.0167,0.0169,0.0216,0.0216,0.0215,0,0,0,0,0,0,0,0,0,0,0,0,0,0.0145,0.0144,0.0103,0.0104,0.0104,0.0105,0.0105,0.0104,0.0163,0.0165,0.0168,0.017,0.0216,0.0216,0.0215,0,0,0,0,0,0,0,0,0,0,0,0,0,0.0131,0.0143,0.0103,0.0137,0.014,0.0105,0.0105,0.0104,0.0163,0.0165,0.0168,0.0171,0.0216,0.0216,0.0215,0.0153,0,0,0.0213,0.0212,0,0,0,0,0,0,0,0,0.0132,0.0129,0.0131,0.0134,0.0138,0.014,0.0137,0.0124,0.0162,0.015,0.0169,0.0172,0.0195,0.0196,0.0184,0.0156,0.0158,0.0212,0.0212,0.0212,0.0211,0,0,0,0,0,0,0,0.0133,0.0129,0.01,0.0132,0.0136,0.015,0.015,0.0134,0.0154,0.0151,0.0156,0.0162,0.0197,0.0185,0.0186,0.0158,0.0212,0.0212,0.0211,0.0211,0.01,0.0097,0,0,0,0,0,0,0.0137,0.013,0.01,0.0101,0.0146,0.0147,0.0147,0.0133,0.0154,0.016,0.0159,0.0165,0.0185,0.0187,0.0188,0.0144,0.0212,0.0211,0.0211,0.0102,0.0099,0.0096,0,0,0,0,0,0,0.0138,0.0134,0.01,0.012,0.0118,0.0144,0.0127,0.0132,0.0133,0.016,0.0168,0.0158,0.0187,0.0189,0.0169,0.0146,0.0211,0.021,0.0105,0.0101,0.0098,0.0039,0,0,0,0,0,0,0.0138,0.0133,0.0122,0.0119,0.0117,0.0064,0.0125,0.013,0.0134,0.0141,0.0161,0.0168,0.0189,0.0169,0.0168,0.0146,0.0209,0.0108,0.0103,0.0099,0.0044,0.0034,0.0025,0,0,0,0,0,0.0139,0.0101,0.0121,0.0118,0.01,0.0062,0.0059,0.0087,0.0131,0.0104,0.0128,0.0168,0.0139,0.0166,0.0165,0.0143,0.0111,0.0105,0.0099,0.0049,0.0036,0.0025,0,0,0,0,0,0,0.0107,0.0104,0.0125,0.0088,0.0075,0.0074,0.0057,0.008,0.0076,0.009,0.0132,0.0137,0.0105,0.0121,0.0151,0.0093,0.0132,0.0125,0.0093,0.0081,0.0072,0.0079,0.0209,0,0,0,0,0,0.0096,0.007,0.007,0.0038,0.0033,0.0047,0.004,0.005,0.0051,0.0053,0.0071,0.0082,0.0073,0.008,0.0062,0.0032,0.0066,0.0015,0.0005,-0.0003,-0.0002,0.0011,0.0004,0.0078,0.0078,0.0078,0,0,0.0077,0.0071,0.0058,0.003,0.0029,-0.0013,0.0048,0.0019,-0.0011,0.0056,0.0022,0.0038,0.0051,0.0016,0.0005,0.0037,-0.0006,-0.001,-0.0016,-0.0011,0.0004,-0.0002,-0.0008,0.0074,0.0075,0.0075,0,0,0.001,0.0017,-0.0027,-0.0047,-0.0061,-0.0061,-0.0069,-0.0077,-0.0071,-0.0112,-0.0064,-0.008,-0.0082,-0.0086,-0.0083,-0.0167,-0.007,-0.0141,-0.0166,-0.0154,-0.0159,-0.0163,-0.0116,-0.0115,-0.013,-0.013,-0.013,0,-0.0007,-0.0061,-0.0049,-0.0101,-0.0118,-0.0084,-0.0139,-0.015,-0.0164,-0.0161,-0.0136,-0.0146,-0.0151,-0.0168,-0.0181,-0.0192,-0.0122,-0.0115,-0.0163,-0.0166,-0.0169,-0.012,-0.0118,-0.0134,-0.0133,-0.0133,-0.0133,0,-0.0107,-0.0147,-0.0178,-0.0224,-0.0253,-0.0296,-0.0301,-0.0324,-0.0302,-0.0292,-0.0308,-0.0306,-0.0297,-0.0302,-0.0258,-0.0268,-0.0191,-0.0185,-0.0123,-0.0179,-0.0125,-0.0122,-0.0139,-0.0137,-0.0136,-0.0136,0,0,-0.0148,-0.0227,-0.0238,-0.0271,-0.0315,-0.035,-0.0404,-0.0431,-0.0444,-0.0444,-0.0457,-0.0471,-0.0413,-0.0407,-0.0354,-0.0329,-0.0304,-0.0232,-0.023,-0.0166,-0.0203,-0.0089,-0.0074,-0.0255,-0.0255,-0.0256,-0.015,0,-0.0218,-0.0324,-0.0351,-0.0449,-0.0494,-0.0496,-0.0549,-0.0569,-0.0559,-0.057,-0.0535,-0.0547,-0.0465,-0.045,-0.0407,-0.0326,-0.0297,-0.033,-0.0175,-0.0171,-0.0047,-0.007,-0.0257,-0.0147,-0.0147,-0.0146,-0.0146,0,-0.0302,-0.0356,-0.0459,-0.054,-0.056,-0.062,-0.0665,-0.0708,-0.0707,-0.0698,-0.0663,-0.0617,-0.0572,-0.0525,-0.0386,-0.0373,-0.0293,-0.0235,-0.023,-0.01,-0.0052,-0.0085,-0.014,-0.014,-0.014,-0.0141,-0.0141,0,-0.032,-0.0431,-0.0506,-0.0537,-0.0628,-0.0674,-0.0713,-0.0738,-0.0762,-0.0767,-0.0767,-0.0691,-0.0654,-0.0541,-0.0365,-0.0366,-0.0194,-0.0217,-0.0052,-0.0042,-0.0147,-0.0144,-0.0169,-0.0169,-0.017,-0.017,-0.017,0,-0.0376,-0.0441,-0.0522,-0.0566,-0.0647,-0.0704,-0.0772,-0.0802,-0.0839,-0.0841,-0.0809,-0.0769,-0.0643,-0.0508,-0.0374,-0.0146,-0.0202,-0.0048,-0.001,-0.0174,-0.0176,-0.0143,-0.0141,-0.0166,-0.0167,-0.0167,-0.0168,0,-0.0394,-0.0449,-0.0536,-0.0632,-0.066,-0.0716,-0.0805,-0.0846,-0.088,-0.0884,-0.0891,-0.0813,-0.0612,-0.0453,-0.027,-0.0155,0.0009,0.0084,-0.0055,-0.0028,0.0147,0.0144,0.0241,0.0246,0.025,0.0254,0.0257,0,-0.0417,-0.0459,-0.0558,-0.0598,-0.0647,-0.0726,-0.0775,-0.085,-0.0874,-0.0869,-0.0856,-0.0718,-0.0615,-0.0254,-0.0105,0.0146,0.0171,0.0227,0.0136,0.0161,0.0187,0.0177,0.0169,0.0263,0.0264,0.0265,0.0266,0,-0.0443,-0.0471,-0.0532,-0.0596,-0.0661,-0.0733,-0.0799,-0.0819,-0.0868,-0.09,-0.0786,-0.0643,-0.0407,-0.0181,0.0036,0.0201,0.0171,0.0269,0.0259,0.0174,0.0188,0.0208,0.0195,0.0281,0.0278,0.0277,0.0276,0,-0.0446,-0.0479,-0.0538,-0.0593,-0.0667,-0.072,-0.076,-0.0767,-0.0797,-0.079,-0.0722,-0.0532,-0.0432,-0.0147,0.006,0.0246,0.0246,0.0237,0.0228,0.0214,0.0179,0.019,0.0324,0,0,0,0,0,-0.0448,-0.0478,-0.0529,-0.06,-0.0665,-0.0706,-0.0768,-0.08,-0.0821,-0.0729,-0.0735,-0.0511,-0.0219,-0.0105,0.0106,0.0114,0.0268,0.0359,0.025,0.0359,0.0343,0.0317,0,0,0,0,0,0,-0.0455,-0.0502,-0.0523,-0.0583,-0.0623,-0.07,-0.0738,-0.0755,-0.0698,-0.0689,-0.0515,-0.0476,-0.0172,-0.0316,0.011,0.0161,0.0112,0.0486,0.0489,0.0368,0.0354,0.034,0.0308,0,0,0,0,0]}]]